METEOR 2-5 DEB, 38271

Orbit data source: Space-Track

METEOR 2-5 DEB, 38271 is space debris in LEO originally from a launch on Wed, 31 Oct 1979 UTC launched from the Plesetsk Missile And Space Complex (PKMTR). Debris objects in space refer to the collection of defunct objects orbiting the Earth. Examples of debris include non-operational satellites, rocket bodies, and fragments generated from explosions, collisions, or faulty payload assembly.

Loading next visibility...
Identifier
38271, 1979-095BR
Orbit
LEO
Country
Flag of CISCIS
Related business
Manufacturer
Unknown
Mission
Spacecraft
Bus & Motor
Unknown
Mass
Unknown
Launch date (UTC)
1979-10-31 (47 years ago)
Launch vehicle
Unknown
Launch site
Plesetsk Missile And Space Complex (PKMTR)
Object type
Payload
Rocket body
Debris
Shape & HBR
Unknown shape, 0.1 m
Radar Cross Section
Small (<0.1 m²)

Expand to show TLE details & history
Last TLE update: 15 hours ago

TLE from 15 hours ago
0 METEOR 2-5 DEB
1 38271U 79095BR  26123.46588736  .00005290  00000-0  17985-2 0  9990
2 38271  81.2028 180.4633 0026646  89.6631 270.7608 14.36294737753546
Epoch: 2026-05-03T11:10Z
TLE epoch observation values (Epoch: 2026-05-03T11:10:52.667Z)
Latitude
Longitude
151.37482°
Altitude
773.499 km
Speed
7.467 km/s
True Right ascension
12h 01m 51s
True Declination
0° 00' 00"
Sunlit
Object was in full shadow at epoch
Visualization orbit readout
Latitude
Unknown
Longitude
Unknown
Altitude
Unknown
Speed
Unknown
Apparent Right ascension
Unknown
Apparent Declination
Unknown
Sunlit
N/A
Visualization observer readout
Local Sidereal Time
09:34:37
Azimuth
Unknown
Elevation
Unknown
Doppler factor
Unknown
Orbital elements
Apogee altitude
786.949 km
Perigee altitude
748.867 km
Semi-major axis
7,146.045 km
Eccentricity
0.00266
Inclination
81.2028°
RAAN
180.4633°
Arg. of periapsis
89.6631°
True anomaly
270.45547°
Mean anomaly
270.7608°
Eccentric anomaly
270.60814°
Mean motion
3.5929 °/min
Orbital period
100.2 mins
BSTAR
0.0017985
Loading maneuver chart data...
Computing Atmospheric mass density...
Loading historical data...
Loading historical data...
Loading historical data...
Loading historical data...
Loading historical data...
Loading historical data...
Loading historical data...

Documentation

Showing up to 5 results
|